ARIANE 6 R/B, 60239

Orbit data source: Space-Track

ARIANE 6 R/B, 60239 is space debris in LEO originally from a launch on Tue, 09 Jul 2024 UTC via an ARIANE 62 launch vehicle from the French Guiana (FRGUI). Debris objects in space refer to the collection of defunct objects orbiting the Earth. Examples of debris include non-operational satellites, rocket bodies, and fragments generated from explosions, collisions, or faulty payload assembly.

Loading next visibility...
Identifier
60239, 2024-128E
Orbit
LEO
Country
Flag of FRFR
Related business
Manufacturer
ArianeGroup
Mission
Spacecraft
Bus & Motor
ARI6DP, Unknown motor
Mass
~7,711 kg wet, 1,600 kg dry
Launch date (UTC)
2024-07-09 (2 years ago)
Launch vehicle
ARIANE 62
Launch site
French Guiana (FRGUI)
Object type
Payload
Rocket body
Debris
Shape & HBR
Cyl + Trunc Cone, 7.0 m
Radar Cross Section
72.787 m², Large (>1 m²)

Expand to show TLE details & history
Last TLE update: 19 hours ago

TLE from 19 hours ago
0 ARIANE 6 R/B
1 60239U 24128E   26037.18071347  .00002328  00000-0  19682-3 0  9990
2 60239  62.0139 326.2486 0055864 109.0231 251.6923 15.00007975 86374
Epoch: 2026-02-06T04:20Z
TLE epoch observation values (Epoch: 2026-02-06T04:20:13.643Z)
Latitude
0.00002°
Longitude
124.86948°
Altitude
581.026 km
Speed
7.564 km/s
True Right ascension
21h 44m 59s
True Declination
0° 00' 00"
Sunlit
Object was in daylight at epoch
Visualization orbit readout
Latitude
Unknown
Longitude
Unknown
Altitude
Unknown
Speed
Unknown
Apparent Right ascension
Unknown
Apparent Declination
Unknown
Sunlit
N/A
Visualization observer readout
Local Sidereal Time
01:02:38
Azimuth
Unknown
Elevation
Unknown
Doppler factor
Unknown
Orbital elements
Apogee altitude
604.592 km
Perigee altitude
527.008 km
Semi-major axis
6,943.937 km
Eccentricity
0.00559
Inclination
62.0139°
RAAN
326.2486°
Arg. of periapsis
109.0231°
True anomaly
251.08589°
Mean anomaly
251.6923°
Eccentric anomaly
251.38896°
Mean motion
3.75089 °/min
Orbital period
95.98 mins
BSTAR
0.00019682
Loading maneuver chart data...
Computing Atmospheric mass density...
Loading historical data...
Loading historical data...
Loading historical data...
Loading historical data...
Loading historical data...
Loading historical data...
Loading historical data...

Documentation

Showing up to 5 results
|